CW9414 Weather Reports


time (UTC)temp
C
wind
direction
speed
KPH
gust
KPH
rain 1hr
cm
rain 24hr
cm
rain mn
cm
humidity
%
barometer
mb
20260902173451 26 202 0.0 0.0 0.00 0.00 0.00 88 1010.7
20260902172447 26 202 0.0 0.0 0.00 0.00 0.00 88 1011.0
20260902171447 26 202 0.0 0.0 0.00 0.00 0.00 88 1011.2
20260902170447 26 202 0.0 0.0 0.00 0.00 0.00 88 1011.2
20260902165450 26 202 0.0 0.0 0.00 0.00 0.00 88 1011.3
20260902164447 26 202 0.0 0.0 0.00 0.00 0.00 88 1011.5
20260902163447 26 202 0.0 0.0 0.00 0.00 0.00 88 1011.5
20260902162447 26 202 0.0 0.0 0.00 0.00 0.00 88 1011.6
20260902161447 26 202 0.0 0.0 0.00 0.00 0.00 88 1011.6
20260902160447 26 202 0.0 0.0 0.00 0.00 0.00 88 1011.6
20260902155447 26 202 0.0 0.0 0.00 0.00 0.00 88 1011.5
20260902154447 26 202 0.0 0.0 0.00 0.00 0.00 88 1011.5
20260902153447 26 202 0.0 0.0 0.00 0.00 0.00 88 1011.5
20260902152447 26 202 0.0 0.0 0.00 0.00 0.00 88 1011.3
20260902151450 26 202 0.0 0.0 0.00 0.00 0.00 88 1011.4
20260902150447 26 202 0.0 0.0 0.00 0.00 0.00 88 1011.4
20260902145447 26 202 0.0 0.0 0.00 0.00 0.00 88 1011.4
20260902144447 26 202 0.0 0.0 0.00 0.00 0.00 88 1011.3
20260902143447 26 202 0.0 0.0 0.00 0.00 0.00 88 1011.3
20260902142447 26 202 0.0 0.0 0.00 0.00 0.00 88 1011.3
20260902141447 26 202 0.0 0.0 0.00 0.00 0.00 88 1011.3
20260902140447 26 202 0.0 0.0 0.00 0.00 0.00 88 1011.3
20260902135447 26 202 0.0 0.0 0.00 0.00 0.00 88 1011.3
20260902134447 26 202 0.0 0.0 0.00 0.00 0.00 88 1011.3
20260902133450 26 202 0.0 0.0 0.00 0.00 0.00 88 1011.3
20260902132447 26 202 0.0 0.0 0.00 0.00 0.00 88 1011.2
20260902131447 26 202 0.0 0.0 0.00 0.00 0.00 88 1010.8
20260902130446 26 202 0.0 0.0 0.00 0.00 0.00 88 1010.8
20260902125450 26 202 0.0 0.0 0.00 0.00 0.00 88 1010.7
20260902124446 26 202 0.0 0.0 0.00 0.00 0.00 88 1010.2
20260902123450 26 202 0.0 0.0 0.00 0.00 0.00 88 1010.2
20260902122447 26 202 0.0 3.2 0.00 0.00 0.00 87 1009.7
20260902121447 26 200 0.0 3.2 0.00 0.00 0.00 86 1009.8
20260902120447 26 200 0.0 3.2 0.00 0.00 0.00 86 1009.8
20260902115446 26 200 0.0 4.8 0.00 0.00 0.00 86 1009.9
20260902114446 26 200 0.0 3.2 0.00 0.00 0.00 86 1009.9
20260902113447 27 200 0.0 3.2 0.00 0.00 0.00 86 1009.9
20260902112450 27 200 0.0 0.0 0.00 0.00 0.00 85 1009.8
20260902111447 27 200 0.0 1.6 0.00 0.00 0.00 85 1009.8
20260902110449 27 200 0.0 1.6 0.00 0.00 0.00 85 1009.8
20260902105447 27 200 0.0 1.6 0.00 0.00 0.00 85 1009.8
20260902104447 27 200 0.0 3.2 0.00 0.00 0.00 84 1009.8
20260902103446 27 200 0.0 4.8 0.00 0.00 0.00 84 1009.8
20260902102446 27 200 0.0 3.2 0.00 0.00 0.00 84 1009.7
20260902101446 27 200 0.0 0.0 0.00 0.00 0.00 83 1009.6
20260902100446 27 200 0.0 3.2 0.00 0.00 0.00 83 1009.6
20260902095446 27 200 1.6 4.8 0.00 0.00 0.00 83 1009.7
20260902094447 27 200 0.0 3.2 0.00 0.00 0.00 82 1009.7
20260902093446 27 200 0.0 1.6 0.00 0.00 0.00 82 1009.7
20260902092446 27 200 0.0 3.2 0.00 0.00 0.00 82 1009.7
20260902091447 27 201 0.0 4.8 0.00 0.00 0.00 82 1009.7
20260902090446 27 201 0.0 4.8 0.00 0.00 0.00 82 1009.7
20260902085449 27 201 0.0 3.2 0.00 0.00 0.00 81 1009.7
20260902084446 27 201 0.0 4.8 0.00 0.00 0.00 81 1009.7
20260902083446 27 200 0.0 4.8 0.00 0.00 0.00 81 1009.7
20260902082446 27 198 0.0 3.2 0.00 0.00 0.00 80 1009.7
20260902081447 27 198 0.0 6.4 0.00 0.00 0.00 79 1009.7
20260902080446 27 202 0.0 4.8 0.00 0.00 0.00 79 1009.7
20260902075447 27 267 1.6 4.8 0.00 0.00 0.00 79 1009.7
20260902074446 27 267 0.0 4.8 0.00 0.00 0.00 79 1009.7
20260902073447 27 268 0.0 4.8 0.00 0.00 0.00 79 1009.7
20260902072446 27 273 1.6 3.2 0.00 0.00 0.00 79 1009.8
20260902071449 27 273 0.0 3.2 0.00 0.00 0.00 79 1009.8
20260902070447 27 294 0.0 8.0 0.00 0.00 0.00 79 1009.8
20260902065447 27 51 0.0 3.2 0.00 0.00 0.00 79 1009.7
20260902064446 27 49 1.6 1.6 0.00 0.00 0.00 78 1009.7
20260902063447 27 48 0.0 3.2 0.00 0.00 0.00 76 1009.7
20260902062450 27 46 0.0 3.2 0.00 0.00 0.00 75 1009.7
20260902061449 27 46 0.0 0.0 0.00 0.00 0.00 74 1009.7
20260902060446 27 46 0.0 0.0 0.00 0.00 0.00 73 1009.7
20260902055446 27 46 0.0 0.0 0.00 0.00 0.00 72 1010.0
20260902054447 27 46 0.0 0.0 0.00 0.00 0.00 72 1009.9
20260902053450 27 46 0.0 0.0 0.00 0.00 0.00 71 1009.9
20260902052446 27 46 0.0 0.0 0.00 0.00 0.00 72 1009.9
20260902051447 27 46 0.0 0.0 0.00 0.00 0.00 71 1010.0
20260902050446 27 46 0.0 0.0 0.00 0.00 0.00 70 1010.0
20260902045446 27 46 0.0 0.0 0.00 0.00 0.00 70 1009.9
20260902044446 27 46 0.0 0.0 0.00 0.00 0.00 70 1009.7
20260902043446 27 46 0.0 0.0 0.00 0.00 0.00 69 1009.7
20260902042446 27 46 0.0 0.0 0.00 0.00 0.00 69 1010.0
20260902041446 27 46 0.0 0.0 0.00 0.00 0.00 69 1010.2
20260902040446 27 46 0.0 0.0 0.00 0.00 0.00 69 1010.2
20260902035446 28 46 0.0 0.0 0.00 0.00 0.00 69 1010.2
20260902034446 28 46 0.0 0.0 0.00 0.00 0.00 68 1010.2
20260902033447 28 46 0.0 0.0 0.00 0.00 0.00 68 1010.2
20260902032446 28 46 0.0 0.0 0.00 0.00 0.00 68 1010.1
20260902031446 28 46 0.0 0.0 0.00 0.00 0.00 68 1009.7
20260902030447 28 46 0.0 0.0 0.00 0.00 0.00 68 1009.7
20260902025450 28 46 0.0 0.0 0.00 0.00 0.00 68 1009.6
20260902024446 28 46 0.0 0.0 0.00 0.00 0.00 66 1009.5
20260902023446 28 46 0.0 0.0 0.00 0.00 0.00 67 1009.5
20260902022446 28 46 0.0 0.0 0.00 0.00 0.00 67 1009.3
20260902021446 29 46 0.0 0.0 0.00 0.00 0.00 65 1009.0
20260902020449 29 46 0.0 0.0 0.00 0.00 0.00 64 1009.0
20260902015446 29 46 0.0 0.0 0.00 0.00 0.00 63 1008.8
20260902014449 29 46 0.0 0.0 0.00 0.00 0.00 62 1008.6
20260902013446 29 46 0.0 0.0 0.00 0.00 0.00 61 1008.7
20260902012449 29 46 0.0 0.0 0.00 0.00 0.00 61 1008.7
20260902011446 30 46 0.0 0.0 0.00 0.00 0.00 61 1008.7
20260902010446 30 46 0.0 0.0 0.00 0.00 0.00 61 1008.7
20260902005446 30 46 0.0 0.0 0.00 0.00 0.00 60 1008.9
20260902004446 30 46 0.0 0.0 0.00 0.00 0.00 60 1008.8
20260902003449 30 46 0.0 0.0 0.00 0.00 0.00 60 1008.8
20260902002446 30 46 0.0 1.6 0.00 0.00 0.00 60 1008.7
20260902001446 31 46 0.0 1.6 0.00 0.00 0.00 61 1008.7
20260902000446 31 46 0.0 0.0 0.00 0.00 0.00 61 1008.7
20260901235449 31 46 0.0 3.2 0.00 0.00 0.00 60 1008.7
20260901234446 31 46 0.0 3.2 0.00 0.00 0.00 58 1008.7
20260901233446 32 46 0.0 11.3 0.00 0.00 0.00 58 1008.7
20260901232445 32 20 1.6 3.2 0.00 0.00 0.00 52 1008.7
20260901231449 32 20 0.0 0.0 0.00 0.00 0.00 51 1008.7
20260901230446 32 20 0.0 3.2 0.00 0.00 0.00 51 1008.7
20260901225446 32 20 0.0 3.2 0.00 0.00 0.00 49 1008.8
20260901224446 32 20 0.0 0.0 0.00 0.00 0.00 48 1008.8
20260901223446 33 20 0.0 0.0 0.00 0.00 0.00 47 1008.8
20260901222446 33 20 0.0 0.0 0.00 0.00 0.00 47 1008.8
20260901221449 33 20 0.0 3.2 0.00 0.00 0.00 45 1009.1
20260901220446 33 20 0.0 0.0 0.00 0.00 0.00 45 1009.1
20260901215446 33 20 0.0 0.0 0.00 0.00 0.00 44 1009.3
20260901214445 33 20 0.0 3.2 0.00 0.00 0.00 44 1009.5
20260901213446 33 20 0.0 0.0 0.00 0.00 0.00 45 1009.5
20260901212446 34 20 0.0 3.2 0.00 0.00 0.00 46 1009.3
20260901211445 34 20 0.0 3.2 0.00 0.00 0.00 47 1009.2
20260901210449 35 20 0.0 4.8 0.00 0.00 0.00 45 1009.2
20260901205446 35 20 1.6 8.0 0.00 0.00 0.00 45 1009.3
20260901204449 36 20 0.0 4.8 0.00 0.00 0.00 42 1009.6
20260901203449 36 20 0.0 9.7 0.00 0.00 0.00 44 1009.6
20260901202446 36 34 0.0 6.4 0.00 0.00 0.00 45 1009.8
20260901201446 36 12 4.8 11.3 0.00 0.00 0.00 45 1010.0
20260901200445 35 22 3.2 4.8 0.00 0.00 0.00 47 1010.0
20260901195446 34 22 0.0 9.7 0.00 0.00 0.00 48 1010.2
20260901194446 34 17 4.8 6.4 0.00 0.00 0.00 48 1010.2
20260901193446 34 0 0.0 4.8 0.00 0.00 0.00 47 1010.2
20260901192445 34 300 1.6 4.8 0.00 0.00 0.00 48 1010.3
20260901191446 33 300 0.0 6.4 0.00 0.00 0.00 50 1010.3
20260901190445 33 9 4.8 9.7 0.00 0.00 0.00 51 1010.3
20260901185448 33 20 1.6 6.4 0.00 0.00 0.00 51 1010.7
20260901184445 33 325 1.6 6.4 0.00 0.00 0.00 52 1010.8
20260901183445 33 300 3.2 8.0 0.00 0.00 0.00 53 1010.8
20260901182449 33 17 0.0 4.8 0.00 0.00 0.00 55 1010.8
20260901181445 32 17 0.0 6.4 0.00 0.00 0.00 57 1011.0
20260901180446 32 17 0.0 8.0 0.00 0.00 0.00 59 1011.0
20260901175449 31 18 1.6 4.8 0.00 0.00 0.00 62 1011.3
20260901174445 31 18 1.6 6.4 0.00 0.00 0.00 63 1011.8